Time,TemperatureF,DewpointF,PressureIn,WindDirection,WindDirectionDegrees,WindSpeedMPH,WindSpeedGustMPH,Humidity,HourlyPrecipIn,Conditions,Clouds,dailyrainin,SoftwareType,DateUTC
2013-01-20 00:04:00,16.5,5.4,30.00,SE,134,5.0,10.0,61,0.00,,,0.00,Wunderground v.1.15,2013-01-20 06:04:00,
2013-01-20 00:10:00,16.3,5.0,30.01,ESE,108,3.0,-999.0,61,-99.99,,,0.00,weatherlink.com 1.10,2013-01-20 06:10:00,
2013-01-20 00:16:00,15.9,4.8,30.01,ESE,103,7.0,11.0,61,0.00,,,0.00,Wunderground v.1.15,2013-01-20 06:16:00,
2013-01-20 00:21:00,15.8,5.8,30.02,SSE,166,3.0,4.0,64,0.00,,,0.00,Wunderground v.1.15,2013-01-20 06:21:00,
2013-01-20 00:27:00,15.5,6.2,30.03,SE,127,4.0,6.0,66,0.00,,,0.00,Wunderground v.1.15,2013-01-20 06:27:00,
2013-01-20 00:32:00,15.1,7.1,30.03,ESE,106,6.0,10.0,70,0.00,,,0.00,Wunderground v.1.15,2013-01-20 06:32:00,
2013-01-20 00:37:00,14.7,7.9,30.04,South,187,1.0,10.0,74,0.00,,,0.00,Wunderground v.1.15,2013-01-20 06:37:00,
2013-01-20 00:43:00,14.5,8.9,30.04,ESE,106,5.0,6.0,78,0.00,,,0.00,Wunderground v.1.15,2013-01-20 06:43:00,
2013-01-20 00:48:00,14.3,9.0,30.05,SE,124,3.0,6.0,79,0.00,,,0.00,Wunderground v.1.15,2013-01-20 06:48:00,
2013-01-20 00:53:00,14.1,8.2,30.05,South,178,2.0,6.0,77,0.00,,,0.00,Wunderground v.1.15,2013-01-20 06:53:00,
2013-01-20 00:59:00,14.1,7.9,30.06,NNW,339,4.0,6.0,76,0.00,,,0.00,Wunderground v.1.15,2013-01-20 06:59:00,
2013-01-20 01:05:00,14.0,5.1,30.06,ESE,120,3.0,6.0,67,0.00,,,0.00,Wunderground v.1.15,2013-01-20 07:05:00,
2013-01-20 01:11:00,13.6,3.7,30.07,SSE,161,3.0,4.0,64,0.00,,,0.00,Wunderground v.1.15,2013-01-20 07:11:00,
2013-01-20 01:17:00,13.3,3.4,30.07,ESE,116,2.0,5.0,64,0.00,,,0.00,Wunderground v.1.15,2013-01-20 07:17:00,
2013-01-20 01:22:00,13.1,3.5,30.07,SE,134,4.0,4.0,65,0.00,,,0.00,Wunderground v.1.15,2013-01-20 07:22:00,
2013-01-20 01:28:00,12.9,3.0,30.08,ESE,116,3.0,5.0,64,0.00,,,0.00,Wunderground v.1.15,2013-01-20 07:28:00,
2013-01-20 01:34:00,12.6,2.7,30.08,ESE,121,2.0,4.0,64,0.00,,,0.00,Wunderground v.1.15,2013-01-20 07:34:00,
2013-01-20 01:39:00,12.4,2.0,30.08,SSE,148,3.0,-999.0,62,-99.99,,,0.00,weatherlink.com 1.10,2013-01-20 07:39:00,
2013-01-20 01:44:00,12.1,1.2,30.08,SE,142,1.0,4.0,61,0.00,,,0.00,Wunderground v.1.15,2013-01-20 07:44:00,
2013-01-20 01:50:00,11.8,1.3,30.09,ESE,123,1.0,3.0,62,0.00,,,0.00,Wunderground v.1.15,2013-01-20 07:50:00,
2013-01-20 01:56:00,11.7,1.0,30.10,ESE,118,0.0,-999.0,63,-99.99,,,0.00,weatherlink.com 1.10,2013-01-20 07:56:00,
2013-01-20 02:01:00,11.7,2.2,30.11,ESE,117,1.0,2.0,65,0.00,,,0.00,Wunderground v.1.15,2013-01-20 08:01:00,
2013-01-20 02:06:00,11.7,2.2,30.12,SW,219,3.0,7.0,65,0.00,,,0.00,Wunderground v.1.15,2013-01-20 08:06:00,
2013-01-20 02:11:00,11.5,1.0,30.12,SSE,156,2.0,9.0,62,0.00,,,0.00,Wunderground v.1.15,2013-01-20 08:11:00,
2013-01-20 02:16:00,11.4,1.2,30.13,ESE,117,2.0,9.0,63,0.00,,,0.00,Wunderground v.1.15,2013-01-20 08:16:00,
2013-01-20 02:21:00,11.3,1.1,30.14,ESE,118,4.0,9.0,63,0.00,,,0.00,Wunderground v.1.15,2013-01-20 08:21:00,
2013-01-20 02:26:00,10.9,0.4,30.15,South,189,2.0,11.0,62,0.00,,,0.00,Wunderground v.1.15,2013-01-20 08:26:00,
2013-01-20 02:31:00,10.6,0.1,30.15,ESE,122,7.0,12.0,62,0.00,,,0.00,Wunderground v.1.15,2013-01-20 08:31:00,
2013-01-20 02:36:00,10.5,0.0,30.16,ESE,122,2.0,12.0,62,0.00,,,0.00,Wunderground v.1.15,2013-01-20 08:36:00,
2013-01-20 02:41:00,10.4,-0.1,30.16,SSE,148,4.0,6.0,62,0.00,,,0.00,Wunderground v.1.15,2013-01-20 08:41:00,
2013-01-20 02:46:00,10.4,0.6,30.17,SE,139,2.0,6.0,64,0.00,,,0.00,Wunderground v.1.15,2013-01-20 08:46:00,
2013-01-20 02:51:00,10.4,0.6,30.17,SE,124,1.0,2.0,64,0.00,,,0.00,Wunderground v.1.15,2013-01-20 08:51:00,
2013-01-20 02:56:00,10.5,1.4,30.17,SE,137,1.0,3.0,66,0.00,,,0.00,Wunderground v.1.15,2013-01-20 08:56:00,
2013-01-20 03:01:00,10.4,0.6,30.17,SSE,166,0.0,4.0,64,0.00,,,0.00,Wunderground v.1.15,2013-01-20 09:01:00,
2013-01-20 03:06:00,10.3,0.5,30.17,SE,143,3.0,4.0,64,0.00,,,0.00,Wunderground v.1.15,2013-01-20 09:06:00,
2013-01-20 03:11:00,10.1,0.7,30.17,SE,127,2.0,3.0,65,0.00,,,0.00,Wunderground v.1.15,2013-01-20 09:11:00,
2013-01-20 03:16:00,10.0,0.6,30.18,SSE,148,5.0,9.0,65,0.00,,,0.00,Wunderground v.1.15,2013-01-20 09:16:00,
2013-01-20 03:21:00,9.9,0.5,30.18,SSE,161,4.0,6.0,65,0.00,,,0.00,Wunderground v.1.15,2013-01-20 09:21:00,
2013-01-20 03:26:00,9.8,0.4,30.18,SSE,149,1.0,7.0,65,0.00,,,0.00,Wunderground v.1.15,2013-01-20 09:26:00,
2013-01-20 03:31:00,9.7,0.3,30.19,East,101,4.0,7.0,65,0.00,,,0.00,Wunderground v.1.15,2013-01-20 09:31:00,
2013-01-20 03:36:00,9.6,0.2,30.18,SE,141,3.0,7.0,65,0.00,,,0.00,Wunderground v.1.15,2013-01-20 09:36:00,
2013-01-20 03:41:00,9.5,0.1,30.19,SE,145,2.0,4.0,65,0.00,,,0.00,Wunderground v.1.15,2013-01-20 09:41:00,
2013-01-20 03:46:00,9.5,0.4,30.19,SSE,161,2.0,4.0,66,0.00,,,0.00,Wunderground v.1.15,2013-01-20 09:46:00,
2013-01-20 03:51:00,9.5,0.4,30.19,SE,135,2.0,4.0,66,0.00,,,0.00,Wunderground v.1.15,2013-01-20 09:51:00,
2013-01-20 03:56:00,9.4,0.3,30.19,SE,128,2.0,7.0,66,0.00,,,0.00,Wunderground v.1.15,2013-01-20 09:56:00,
2013-01-20 04:01:00,9.3,0.2,30.19,ESE,115,2.0,5.0,66,0.00,,,0.00,Wunderground v.1.15,2013-01-20 10:01:00,
2013-01-20 04:06:00,9.3,0.5,30.20,SSE,161,2.0,5.0,67,0.00,,,0.00,Wunderground v.1.15,2013-01-20 10:06:00,
2013-01-20 04:11:00,9.3,0.2,30.20,SE,133,2.0,6.0,66,0.00,,,0.00,Wunderground v.1.15,2013-01-20 10:11:00,
2013-01-20 04:16:00,9.2,0.1,30.20,ESE,112,1.0,6.0,66,0.00,,,0.00,Wunderground v.1.15,2013-01-20 10:16:00,
2013-01-20 04:22:00,9.1,0.4,30.21,SE,130,0.0,4.0,67,0.00,,,0.00,Wunderground v.1.15,2013-01-20 10:22:00,
2013-01-20 04:27:00,9.0,-0.1,30.21,ESE,116,5.0,10.0,66,0.00,,,0.00,Wunderground v.1.15,2013-01-20 10:27:00,
2013-01-20 04:32:00,8.9,0.2,30.21,SE,130,2.0,3.0,67,0.00,,,0.00,Wunderground v.1.15,2013-01-20 10:32:00,
2013-01-20 04:37:00,8.9,0.2,30.22,East,84,2.0,6.0,67,0.00,,,0.00,Wunderground v.1.15,2013-01-20 10:37:00,
2013-01-20 04:42:00,8.9,0.2,30.22,SE,137,3.0,6.0,67,0.00,,,0.00,Wunderground v.1.15,2013-01-20 10:42:00,
2013-01-20 04:47:00,8.8,0.1,30.22,SE,124,3.0,6.0,67,0.00,,,0.00,Wunderground v.1.15,2013-01-20 10:47:00,
2013-01-20 04:52:00,8.7,0.0,30.23,East,84,1.0,4.0,67,0.00,,,0.00,Wunderground v.1.15,2013-01-20 10:52:00,
2013-01-20 04:57:00,8.7,0.0,30.23,ESE,113,5.0,7.0,67,0.00,,,0.00,Wunderground v.1.15,2013-01-20 10:57:00,
2013-01-20 05:02:00,8.7,0.0,30.23,ESE,120,2.0,9.0,67,0.00,,,0.00,Wunderground v.1.15,2013-01-20 11:02:00,
2013-01-20 05:07:00,8.6,-0.1,30.23,SE,133,2.0,9.0,67,0.00,,,0.00,Wunderground v.1.15,2013-01-20 11:07:00,
2013-01-20 05:12:00,8.6,-0.1,30.24,East,101,3.0,4.0,67,0.00,,,0.00,Wunderground v.1.15,2013-01-20 11:12:00,
2013-01-20 05:17:00,8.6,-0.1,30.24,SSE,161,3.0,7.0,67,0.00,,,0.00,Wunderground v.1.15,2013-01-20 11:17:00,
2013-01-20 05:22:00,8.5,-0.2,30.24,SSE,156,3.0,6.0,67,0.00,,,0.00,Wunderground v.1.15,2013-01-20 11:22:00,
2013-01-20 05:27:00,8.5,-0.2,30.25,ESE,120,3.0,6.0,67,0.00,,,0.00,Wunderground v.1.15,2013-01-20 11:27:00,
2013-01-20 05:32:00,8.5,-0.2,30.25,ESE,120,3.0,7.0,67,0.00,,,0.00,Wunderground v.1.15,2013-01-20 11:32:00,
2013-01-20 05:37:00,8.5,-0.2,30.25,East,89,6.0,7.0,67,0.00,,,0.00,Wunderground v.1.15,2013-01-20 11:37:00,
2013-01-20 05:42:00,8.5,-0.2,30.25,SE,145,3.0,5.0,67,0.00,,,0.00,Wunderground v.1.15,2013-01-20 11:42:00,
2013-01-20 05:47:00,8.4,-0.3,30.25,SE,139,2.0,5.0,67,0.00,,,0.00,Wunderground v.1.15,2013-01-20 11:47:00,
2013-01-20 05:52:00,8.4,0.0,30.25,SE,128,1.0,3.0,68,0.00,,,0.00,Wunderground v.1.15,2013-01-20 11:52:00,
2013-01-20 05:57:00,8.3,-0.4,30.25,SE,140,0.0,4.0,67,0.00,,,0.00,Wunderground v.1.15,2013-01-20 11:57:00,
2013-01-20 06:02:00,8.3,-0.1,30.25,SE,134,0.0,2.0,68,0.00,,,0.00,Wunderground v.1.15,2013-01-20 12:02:00,
2013-01-20 06:07:00,8.3,-0.1,30.26,East,99,2.0,4.0,68,0.00,,,0.00,Wunderground v.1.15,2013-01-20 12:07:00,
2013-01-20 06:12:00,8.3,-0.1,30.26,SE,135,2.0,2.0,68,0.00,,,0.00,Wunderground v.1.15,2013-01-20 12:12:00,
2013-01-20 06:17:00,8.2,-0.2,30.26,ESE,111,3.0,4.0,68,0.00,,,0.00,Wunderground v.1.15,2013-01-20 12:17:00,
2013-01-20 06:22:00,8.2,-0.2,30.27,SE,133,0.0,3.0,68,0.00,,,0.00,Wunderground v.1.15,2013-01-20 12:22:00,
2013-01-20 06:27:00,8.2,0.1,30.27,SE,141,2.0,3.0,69,0.00,,,0.00,Wunderground v.1.15,2013-01-20 12:27:00,
2013-01-20 06:32:00,8.2,0.1,30.27,South,184,3.0,4.0,69,0.00,,,0.00,Wunderground v.1.15,2013-01-20 12:32:00,
2013-01-20 06:37:00,8.1,0.0,30.27,East,99,2.0,5.0,69,0.00,,,0.00,Wunderground v.1.15,2013-01-20 12:37:00,
2013-01-20 06:42:00,8.1,0.3,30.27,ESE,118,3.0,7.0,70,0.00,,,0.00,Wunderground v.1.15,2013-01-20 12:42:00,
2013-01-20 06:47:00,8.0,-0.1,30.27,SE,134,2.0,7.0,69,0.00,,,0.00,Wunderground v.1.15,2013-01-20 12:47:00,
2013-01-20 06:52:00,7.9,0.1,30.27,ESE,120,2.0,4.0,70,0.00,,,0.00,Wunderground v.1.15,2013-01-20 12:52:00,
2013-01-20 06:57:00,8.0,0.2,30.27,ESE,111,7.0,7.0,70,0.00,,,0.00,Wunderground v.1.15,2013-01-20 12:57:00,
2013-01-20 07:02:00,7.9,0.1,30.27,SE,128,0.0,5.0,70,0.00,,,0.00,Wunderground v.1.15,2013-01-20 13:02:00,
2013-01-20 07:07:00,7.9,0.1,30.27,East,99,4.0,5.0,70,0.00,,,0.00,Wunderground v.1.15,2013-01-20 13:07:00,
2013-01-20 07:12:00,7.8,0.0,30.28,SE,137,2.0,3.0,70,0.00,,,0.00,Wunderground v.1.15,2013-01-20 13:12:00,
2013-01-20 07:17:00,7.8,0.0,30.28,ESE,112,3.0,7.0,70,0.00,,,0.00,Wunderground v.1.15,2013-01-20 13:17:00,
2013-01-20 07:22:00,7.8,0.0,30.28,ESE,116,4.0,4.0,70,0.00,,,0.00,Wunderground v.1.15,2013-01-20 13:22:00,
2013-01-20 07:27:00,7.6,-0.5,30.28,SE,143,0.0,4.0,69,0.00,,,0.00,Wunderground v.1.15,2013-01-20 13:27:00,
2013-01-20 07:32:00,7.6,-0.1,30.29,SE,137,2.0,3.0,70,0.00,,,0.00,Wunderground v.1.15,2013-01-20 13:32:00,
2013-01-20 07:37:00,7.6,-0.1,30.30,SSE,166,1.0,3.0,70,0.00,,,0.00,Wunderground v.1.15,2013-01-20 13:37:00,
2013-01-20 07:42:00,7.6,-0.1,30.30,SE,127,0.0,3.0,70,0.00,,,0.00,Wunderground v.1.15,2013-01-20 13:42:00,
2013-01-20 07:47:00,7.5,-0.6,30.30,South,173,1.0,6.0,69,0.00,,,0.00,Wunderground v.1.15,2013-01-20 13:47:00,
2013-01-20 07:52:00,7.5,-0.6,30.31,East,99,3.0,4.0,69,0.00,,,0.00,Wunderground v.1.15,2013-01-20 13:52:00,
2013-01-20 07:57:00,7.6,-0.5,30.31,ESE,122,1.0,4.0,69,0.00,,,0.00,Wunderground v.1.15,2013-01-20 13:57:00,
2013-01-20 08:02:00,7.6,-0.5,30.32,ESE,118,0.0,3.0,69,0.00,,,0.00,Wunderground v.1.15,2013-01-20 14:02:00,
2013-01-20 08:07:00,7.6,-0.5,30.31,SSE,149,0.0,3.0,69,0.00,,,0.00,Wunderground v.1.15,2013-01-20 14:07:00,
2013-01-20 08:12:00,7.7,-0.4,30.32,SSE,156,0.0,4.0,69,0.00,,,0.00,Wunderground v.1.15,2013-01-20 14:12:00,
2013-01-20 08:17:00,7.7,-0.1,30.32,ESE,108,0.0,4.0,70,0.00,,,0.00,Wunderground v.1.15,2013-01-20 14:17:00,
2013-01-20 08:22:00,7.9,0.1,30.32,SE,139,0.0,3.0,70,0.00,,,0.00,Wunderground v.1.15,2013-01-20 14:22:00,
2013-01-20 08:27:00,8.1,0.3,30.32,SE,141,0.0,4.0,70,0.00,,,0.00,Wunderground v.1.15,2013-01-20 14:27:00,
2013-01-20 08:32:00,8.2,0.4,30.32,ESE,122,1.0,2.0,70,0.00,,,0.00,Wunderground v.1.15,2013-01-20 14:32:00,
2013-01-20 08:38:00,8.3,-0.1,30.33,ESE,114,1.0,5.0,68,0.00,,,0.00,Wunderground v.1.15,2013-01-20 14:38:00,
2013-01-20 08:43:00,8.3,-0.1,30.32,East,99,2.0,4.0,68,0.00,,,0.00,Wunderground v.1.15,2013-01-20 14:43:00,
2013-01-20 08:48:00,8.3,-0.1,30.33,SE,141,1.0,5.0,68,0.00,,,0.00,Wunderground v.1.15,2013-01-20 14:48:00,
2013-01-20 08:53:00,8.5,0.1,30.32,SSE,147,4.0,5.0,68,0.00,,,0.00,Wunderground v.1.15,2013-01-20 14:53:00,
2013-01-20 08:58:00,8.5,0.1,30.32,ESE,112,3.0,5.0,68,0.00,,,0.00,Wunderground v.1.15,2013-01-20 14:58:00,
2013-01-20 09:03:00,8.7,0.3,30.33,ESE,121,3.0,3.0,68,0.00,,,0.00,Wunderground v.1.15,2013-01-20 15:03:00,
2013-01-20 09:08:00,8.8,0.4,30.33,ESE,115,3.0,5.0,68,0.00,,,0.00,Wunderground v.1.15,2013-01-20 15:08:00,
2013-01-20 09:13:00,8.9,0.5,30.33,ESE,105,0.0,4.0,68,0.00,,,0.00,Wunderground v.1.15,2013-01-20 15:13:00,
2013-01-20 09:18:00,9.1,0.7,30.33,SE,128,1.0,4.0,68,0.00,,,0.00,Wunderground v.1.15,2013-01-20 15:18:00,
2013-01-20 09:23:00,9.2,0.5,30.33,East,99,1.0,3.0,67,0.00,,,0.00,Wunderground v.1.15,2013-01-20 15:23:00,
2013-01-20 09:28:00,9.2,0.5,30.33,ESE,102,1.0,5.0,67,0.00,,,0.00,Wunderground v.1.15,2013-01-20 15:28:00,
2013-01-20 09:33:00,9.2,0.5,30.33,ESE,121,3.0,5.0,67,0.00,,,0.00,Wunderground v.1.15,2013-01-20 15:33:00,
2013-01-20 09:38:00,9.3,0.9,30.33,SE,124,0.0,5.0,68,0.00,,,0.00,Wunderground v.1.15,2013-01-20 15:38:00,
2013-01-20 09:43:00,9.5,1.1,30.33,East,93,4.0,5.0,68,0.00,,,0.00,Wunderground v.1.15,2013-01-20 15:43:00,
2013-01-20 09:48:00,9.5,0.7,30.34,SE,141,2.0,5.0,67,0.00,,,0.00,Wunderground v.1.15,2013-01-20 15:48:00,
2013-01-20 09:53:00,9.6,0.8,30.34,SE,128,1.0,4.0,67,0.00,,,0.00,Wunderground v.1.15,2013-01-20 15:53:00,
2013-01-20 09:58:00,9.8,1.0,30.34,SE,130,1.0,7.0,67,0.00,,,0.00,Wunderground v.1.15,2013-01-20 15:58:00,
2013-01-20 10:03:00,9.9,0.8,30.34,SSE,156,2.0,5.0,66,0.00,,,0.00,Wunderground v.1.15,2013-01-20 16:03:00,
2013-01-20 10:08:00,10.0,0.9,30.34,SE,145,1.0,5.0,66,0.00,,,0.00,Wunderground v.1.15,2013-01-20 16:08:00,
2013-01-20 10:14:00,9.9,0.8,30.34,East,101,3.0,3.0,66,0.00,,,0.00,Wunderground v.1.15,2013-01-20 16:14:00,
2013-01-20 10:19:00,9.9,1.1,30.35,ESE,123,1.0,4.0,67,0.00,,,0.00,Wunderground v.1.15,2013-01-20 16:19:00,
2013-01-20 10:24:00,10.1,1.3,30.35,ESE,105,2.0,4.0,67,0.00,,,0.00,Wunderground v.1.15,2013-01-20 16:24:00,
2013-01-20 10:29:00,10.5,1.4,30.35,ESE,120,3.0,5.0,66,0.00,,,0.00,Wunderground v.1.15,2013-01-20 16:29:00,
2013-01-20 10:34:00,10.8,1.7,30.35,East,100,2.0,5.0,66,0.00,,,0.00,Wunderground v.1.15,2013-01-20 16:34:00,
2013-01-20 10:39:00,11.0,1.5,30.35,SE,126,0.0,5.0,65,0.00,,,0.00,Wunderground v.1.15,2013-01-20 16:39:00,
2013-01-20 10:44:00,11.3,1.8,30.35,ESE,118,2.0,6.0,65,0.00,,,0.00,Wunderground v.1.15,2013-01-20 16:44:00,
2013-01-20 10:49:00,11.3,1.5,30.35,SE,125,3.0,6.0,64,0.00,,,0.00,Wunderground v.1.15,2013-01-20 16:49:00,
2013-01-20 10:54:00,11.4,1.6,30.35,ESE,120,4.0,5.0,64,0.00,,,0.00,Wunderground v.1.15,2013-01-20 16:54:00,
2013-01-20 10:59:00,11.3,1.5,30.35,SE,129,2.0,7.0,64,0.00,,,0.00,Wunderground v.1.15,2013-01-20 16:59:00,
2013-01-20 11:04:00,11.6,1.4,30.35,ESE,122,2.0,9.0,63,0.00,,,0.00,Wunderground v.1.15,2013-01-20 17:04:00,
2013-01-20 11:09:00,11.5,1.3,30.35,ESE,116,3.0,9.0,63,0.00,,,0.00,Wunderground v.1.15,2013-01-20 17:09:00,
2013-01-20 11:14:00,11.7,1.9,30.35,ESE,103,1.0,4.0,64,0.00,,,0.00,Wunderground v.1.15,2013-01-20 17:14:00,
2013-01-20 11:19:00,12.0,2.1,30.34,ESE,105,2.0,5.0,64,0.00,,,0.00,Wunderground v.1.15,2013-01-20 17:19:00,
2013-01-20 11:24:00,12.2,2.0,30.34,ESE,112,3.0,5.0,63,0.00,,,0.00,Wunderground v.1.15,2013-01-20 17:24:00,
2013-01-20 11:29:00,12.3,1.7,30.34,SE,128,2.0,5.0,62,0.00,,,0.00,Wunderground v.1.15,2013-01-20 17:29:00,
2013-01-20 11:34:00,12.2,1.7,30.34,ESE,122,4.0,6.0,62,0.00,,,0.00,Wunderground v.1.15,2013-01-20 17:34:00,
2013-01-20 11:39:00,12.3,1.4,30.34,East,99,2.0,6.0,61,0.00,,,0.00,Wunderground v.1.15,2013-01-20 17:39:00,
2013-01-20 11:44:00,12.4,1.5,30.34,NNE,17,0.0,5.0,61,0.00,,,0.00,Wunderground v.1.15,2013-01-20 17:44:00,
2013-01-20 11:49:00,12.8,2.2,30.34,East,93,2.0,5.0,62,0.00,,,0.00,Wunderground v.1.15,2013-01-20 17:49:00,
2013-01-20 11:54:00,13.1,2.2,30.33,SE,132,3.0,4.0,61,0.00,,,0.00,Wunderground v.1.15,2013-01-20 17:54:00,
2013-01-20 11:59:00,13.4,2.4,30.33,SE,135,0.0,4.0,61,0.00,,,0.00,Wunderground v.1.15,2013-01-20 17:59:00,
2013-01-20 12:04:00,13.5,2.5,30.33,ESE,119,3.0,6.0,61,0.00,,,0.00,Wunderground v.1.15,2013-01-20 18:04:00,
2013-01-20 12:09:00,13.7,2.0,30.33,East,99,0.0,6.0,59,0.00,,,0.00,Wunderground v.1.15,2013-01-20 18:09:00,
2013-01-20 12:14:00,13.8,1.4,30.33,ESE,116,4.0,6.0,57,0.00,,,0.00,Wunderground v.1.15,2013-01-20 18:14:00,
2013-01-20 12:19:00,13.7,2.0,30.33,ESE,117,1.0,6.0,59,0.00,,,0.00,Wunderground v.1.15,2013-01-20 18:19:00,
2013-01-20 12:24:00,14.2,2.5,30.33,WSW,257,1.0,4.0,59,0.00,,,0.00,Wunderground v.1.15,2013-01-20 18:24:00,
2013-01-20 12:29:00,14.7,2.6,30.32,ESE,105,3.0,4.0,58,0.00,,,0.00,Wunderground v.1.15,2013-01-20 18:29:00,
2013-01-20 12:34:00,14.5,2.4,30.32,ESE,102,1.0,8.0,58,0.00,,,0.00,Wunderground v.1.15,2013-01-20 18:34:00,
2013-01-20 12:39:00,14.9,3.1,30.31,North,1,1.0,8.0,59,0.00,,,0.00,Wunderground v.1.15,2013-01-20 18:39:00,
2013-01-20 12:45:00,15.2,2.3,30.31,SE,130,4.0,5.0,56,0.00,,,0.00,Wunderground v.1.15,2013-01-20 18:45:00,
2013-01-20 12:50:00,15.3,2.8,30.31,SE,145,3.0,3.0,57,0.00,,,0.00,Wunderground v.1.15,2013-01-20 18:50:00,
2013-01-20 12:55:00,15.5,3.0,30.30,SSE,151,0.0,6.0,57,0.00,,,0.00,Wunderground v.1.15,2013-01-20 18:55:00,
2013-01-20 13:00:00,15.7,2.4,30.31,ESE,116,4.0,4.0,55,0.00,,,0.00,Wunderground v.1.15,2013-01-20 19:00:00,
2013-01-20 13:05:00,15.7,2.4,30.31,SSE,161,2.0,7.0,55,0.00,,,0.00,Wunderground v.1.15,2013-01-20 19:05:00,
2013-01-20 13:10:00,15.8,2.5,30.31,SSE,149,3.0,4.0,55,0.00,,,0.00,Wunderground v.1.15,2013-01-20 19:10:00,
2013-01-20 13:15:00,16.0,2.7,30.31,SE,128,2.0,4.0,55,0.00,,,0.00,Wunderground v.1.15,2013-01-20 19:15:00,
2013-01-20 13:20:00,16.2,2.4,30.31,ESE,104,2.0,3.0,54,0.00,,,0.00,Wunderground v.1.15,2013-01-20 19:20:00,
2013-01-20 13:25:00,15.7,2.0,30.30,ESE,122,4.0,6.0,54,0.00,,,0.00,Wunderground v.1.15,2013-01-20 19:25:00,
2013-01-20 13:30:00,15.4,1.7,30.31,SSE,161,1.0,2.0,54,0.00,,,0.00,Wunderground v.1.15,2013-01-20 19:30:00,
2013-01-20 13:35:00,15.4,2.5,30.31,ESE,102,2.0,4.0,56,0.00,,,0.00,Wunderground v.1.15,2013-01-20 19:35:00,
2013-01-20 13:40:00,15.6,1.9,30.30,SSE,156,1.0,3.0,54,0.00,,,0.00,Wunderground v.1.15,2013-01-20 19:40:00,
2013-01-20 13:45:00,15.9,2.6,30.30,SE,130,4.0,7.0,55,0.00,,,0.00,Wunderground v.1.15,2013-01-20 19:45:00,
2013-01-20 13:50:00,15.7,2.0,30.30,South,174,5.0,5.0,54,0.00,,,0.00,Wunderground v.1.15,2013-01-20 19:50:00,
2013-01-20 13:55:00,15.6,1.9,30.31,SE,130,1.0,5.0,54,0.00,,,0.00,Wunderground v.1.15,2013-01-20 19:55:00,
2013-01-20 14:00:00,15.4,1.7,30.31,SSE,152,1.0,2.0,54,0.00,,,0.00,Wunderground v.1.15,2013-01-20 20:00:00,
2013-01-20 14:05:00,15.3,1.2,30.30,SE,132,1.0,4.0,53,0.00,,,0.00,Wunderground v.1.15,2013-01-20 20:05:00,
2013-01-20 14:10:00,15.5,2.2,30.31,South,174,2.0,5.0,55,0.00,,,0.00,Wunderground v.1.15,2013-01-20 20:10:00,
2013-01-20 14:15:00,15.9,1.8,30.31,ESE,111,3.0,6.0,53,0.00,,,0.00,Wunderground v.1.15,2013-01-20 20:15:00,
2013-01-20 14:21:00,15.7,1.2,30.31,ESE,108,5.0,9.0,52,0.00,,,0.00,Wunderground v.1.15,2013-01-20 20:21:00,
2013-01-20 14:26:00,15.1,0.6,30.31,ESE,122,4.0,9.0,52,0.00,,,0.00,Wunderground v.1.15,2013-01-20 20:26:00,
2013-01-20 14:31:00,15.2,1.5,30.31,South,190,2.0,5.0,54,0.00,,,0.00,Wunderground v.1.15,2013-01-20 20:31:00,
2013-01-20 14:36:00,15.3,0.8,30.31,ESE,120,3.0,6.0,52,0.00,,,0.00,Wunderground v.1.15,2013-01-20 20:36:00,
2013-01-20 14:41:00,15.7,2.4,30.31,ESE,120,3.0,5.0,55,0.00,,,0.00,Wunderground v.1.15,2013-01-20 20:41:00,
2013-01-20 14:46:00,16.1,2.7,30.30,ENE,68,0.0,7.0,55,0.00,,,0.00,Wunderground v.1.15,2013-01-20 20:46:00,
2013-01-20 14:51:00,16.6,2.4,30.30,NNW,330,4.0,4.0,53,0.00,,,0.00,Wunderground v.1.15,2013-01-20 20:51:00,
2013-01-20 14:56:00,17.0,2.8,30.30,NNW,338,2.0,4.0,53,0.00,,,0.00,Wunderground v.1.15,2013-01-20 20:56:00,
2013-01-20 15:01:00,17.1,2.1,30.30,ESE,104,1.0,5.0,51,0.00,,,0.00,Wunderground v.1.15,2013-01-20 21:01:00,
2013-01-20 15:06:00,17.3,2.2,30.30,ESE,120,3.0,5.0,51,0.00,,,0.00,Wunderground v.1.15,2013-01-20 21:06:00,
2013-01-20 15:11:00,17.3,2.2,30.30,ESE,110,2.0,3.0,51,0.00,,,0.00,Wunderground v.1.15,2013-01-20 21:11:00,
2013-01-20 15:16:00,17.1,2.1,30.30,NNW,340,1.0,5.0,51,0.00,,,0.00,Wunderground v.1.15,2013-01-20 21:16:00,
2013-01-20 15:21:00,17.0,2.0,30.30,SE,139,0.0,2.0,51,0.00,,,0.00,Wunderground v.1.15,2013-01-20 21:21:00,
2013-01-20 15:26:00,17.2,3.0,30.30,SE,134,3.0,6.0,53,0.00,,,0.00,Wunderground v.1.15,2013-01-20 21:26:00,
2013-01-20 15:31:00,17.0,2.4,30.30,ENE,61,0.0,2.0,52,0.00,,,0.00,Wunderground v.1.15,2013-01-20 21:31:00,
2013-01-20 15:36:00,17.1,2.5,30.30,NE,45,0.0,3.0,52,0.00,,,0.00,Wunderground v.1.15,2013-01-20 21:36:00,
2013-01-20 15:41:00,17.0,2.0,30.30,ESE,118,3.0,4.0,51,0.00,,,0.00,Wunderground v.1.15,2013-01-20 21:41:00,
2013-01-20 15:46:00,16.7,1.7,30.29,ESE,107,2.0,4.0,51,0.00,,,0.00,Wunderground v.1.15,2013-01-20 21:46:00,
2013-01-20 15:51:00,16.6,2.0,30.29,SSE,148,0.0,3.0,52,0.00,,,0.00,Wunderground v.1.15,2013-01-20 21:51:00,
2013-01-20 15:56:00,16.4,1.4,30.29,ESE,123,0.0,3.0,51,0.00,,,0.00,Wunderground v.1.15,2013-01-20 21:56:00,
2013-01-20 16:01:00,16.1,0.7,30.29,SSE,161,1.0,2.0,50,0.00,,,0.00,Wunderground v.1.15,2013-01-20 22:01:00,
2013-01-20 16:06:00,15.8,0.8,30.29,ESE,112,1.0,4.0,51,0.00,,,0.00,Wunderground v.1.15,2013-01-20 22:06:00,
2013-01-20 16:11:00,15.7,0.7,30.29,East,96,0.0,2.0,51,0.00,,,0.00,Wunderground v.1.15,2013-01-20 22:11:00,
2013-01-20 16:16:00,15.7,1.2,30.29,North,355,0.0,3.0,52,0.00,,,0.00,Wunderground v.1.15,2013-01-20 22:16:00,
2013-01-20 16:21:00,15.6,1.1,30.29,ESE,104,3.0,4.0,52,0.00,,,0.00,Wunderground v.1.15,2013-01-20 22:21:00,
2013-01-20 16:26:00,15.4,0.9,30.29,ESE,103,1.0,5.0,52,0.00,,,0.00,Wunderground v.1.15,2013-01-20 22:26:00,
2013-01-20 16:31:00,15.3,0.8,30.30,SE,125,4.0,5.0,52,0.00,,,0.00,Wunderground v.1.15,2013-01-20 22:31:00,
2013-01-20 16:36:00,15.1,0.2,30.29,ESE,106,1.0,5.0,51,0.00,,,0.00,Wunderground v.1.15,2013-01-20 22:36:00,
2013-01-20 16:41:00,15.1,0.6,30.29,East,91,3.0,4.0,52,0.00,,,0.00,Wunderground v.1.15,2013-01-20 22:41:00,
2013-01-20 16:46:00,15.1,1.0,30.29,ESE,119,2.0,4.0,53,0.00,,,0.00,Wunderground v.1.15,2013-01-20 22:46:00,
2013-01-20 16:51:00,15.0,0.5,30.29,ESE,102,1.0,4.0,52,0.00,,,0.00,Wunderground v.1.15,2013-01-20 22:51:00,
2013-01-20 16:56:00,15.0,0.5,30.29,ESE,117,2.0,5.0,52,0.00,,,0.00,Wunderground v.1.15,2013-01-20 22:56:00,
2013-01-20 17:01:00,15.0,0.5,30.30,SE,144,0.0,2.0,52,0.00,,,0.00,Wunderground v.1.15,2013-01-20 23:01:00,
2013-01-20 17:06:00,15.0,0.1,30.29,ESE,105,3.0,5.0,51,0.00,,,0.00,Wunderground v.1.15,2013-01-20 23:06:00,
2013-01-20 17:12:00,14.9,0.4,30.30,South,177,1.0,2.0,52,0.00,,,0.00,Wunderground v.1.15,2013-01-20 23:12:00,
2013-01-20 17:17:00,14.8,0.7,30.29,SE,124,1.0,5.0,53,0.00,,,0.00,Wunderground v.1.15,2013-01-20 23:17:00,
2013-01-20 17:22:00,14.6,0.5,30.29,ESE,103,3.0,3.0,53,0.00,,,0.00,Wunderground v.1.15,2013-01-20 23:22:00,
2013-01-20 17:27:00,14.6,0.9,30.29,ESE,122,1.0,4.0,54,0.00,,,0.00,Wunderground v.1.15,2013-01-20 23:27:00,
2013-01-20 17:32:00,14.5,0.9,30.30,ESE,105,0.0,3.0,54,0.00,,,0.00,Wunderground v.1.15,2013-01-20 23:32:00,
2013-01-20 17:37:00,14.5,0.9,30.30,ESE,118,0.0,3.0,54,0.00,,,0.00,Wunderground v.1.15,2013-01-20 23:37:00,
2013-01-20 17:42:00,14.5,0.9,30.30,ESE,105,0.0,5.0,54,0.00,,,0.00,Wunderground v.1.15,2013-01-20 23:42:00,
2013-01-20 17:47:00,14.4,0.8,30.30,ESE,106,3.0,5.0,54,0.00,,,0.00,Wunderground v.1.15,2013-01-20 23:47:00,
2013-01-20 17:52:00,14.2,1.0,30.30,ESE,118,1.0,4.0,55,0.00,,,0.00,Wunderground v.1.15,2013-01-20 23:52:00,
2013-01-20 17:57:00,14.1,0.9,30.30,ESE,121,0.0,4.0,55,0.00,,,0.00,Wunderground v.1.15,2013-01-20 23:57:00,
2013-01-20 18:03:00,14.0,0.8,30.30,SE,126,2.0,2.0,55,0.00,,,0.00,Wunderground v.1.15,2013-01-21 00:03:00,
2013-01-20 18:08:00,14.1,0.9,30.30,ESE,103,0.0,3.0,55,0.00,,,0.00,Wunderground v.1.15,2013-01-21 00:08:00,
2013-01-20 18:13:00,14.0,0.8,30.31,ESE,115,1.0,3.0,55,0.00,,,0.00,Wunderground v.1.15,2013-01-21 00:13:00,
2013-01-20 18:18:00,13.7,0.5,30.31,East,95,2.0,4.0,55,0.00,,,0.00,Wunderground v.1.15,2013-01-21 00:18:00,
2013-01-20 18:23:00,13.6,0.8,30.30,ESE,105,0.0,2.0,56,0.00,,,0.00,Wunderground v.1.15,2013-01-21 00:23:00,
2013-01-20 18:28:00,13.5,0.7,30.30,ESE,112,1.0,2.0,56,0.00,,,0.00,Wunderground v.1.15,2013-01-21 00:28:00,
2013-01-20 18:33:00,13.6,1.2,30.30,East,90,1.0,4.0,57,0.00,,,0.00,Wunderground v.1.15,2013-01-21 00:33:00,
2013-01-20 18:38:00,13.6,0.4,30.30,ESE,105,2.0,5.0,55,0.00,,,0.00,Wunderground v.1.15,2013-01-21 00:38:00,
2013-01-20 18:43:00,13.6,0.8,30.30,ESE,116,1.0,3.0,56,0.00,,,0.00,Wunderground v.1.15,2013-01-21 00:43:00,
2013-01-20 18:48:00,13.6,0.8,30.30,ESE,114,0.0,3.0,56,0.00,,,0.00,Wunderground v.1.15,2013-01-21 00:48:00,
2013-01-20 18:53:00,13.6,0.8,30.30,ESE,107,2.0,3.0,56,0.00,,,0.00,Wunderground v.1.15,2013-01-21 00:53:00,
2013-01-20 18:58:00,13.5,0.7,30.30,East,98,1.0,3.0,56,0.00,,,0.00,Wunderground v.1.15,2013-01-21 00:58:00,
2013-01-20 19:03:00,13.4,1.0,30.30,ESE,115,1.0,3.0,57,0.00,,,0.00,Wunderground v.1.15,2013-01-21 01:03:00,
2013-01-20 19:08:00,13.4,1.0,30.30,ESE,114,2.0,3.0,57,0.00,,,0.00,Wunderground v.1.15,2013-01-21 01:08:00,
2013-01-20 19:13:00,13.5,1.4,30.30,ESE,113,0.0,1.0,58,0.00,,,0.00,Wunderground v.1.15,2013-01-21 01:13:00,
2013-01-20 19:18:00,13.4,1.0,30.29,ESE,108,0.0,3.0,57,0.00,,,0.00,Wunderground v.1.15,2013-01-21 01:18:00,
2013-01-20 19:23:00,13.4,1.0,30.29,ESE,122,0.0,1.0,57,0.00,,,0.00,Wunderground v.1.15,2013-01-21 01:23:00,
2013-01-20 19:28:00,13.4,1.0,30.29,ESE,112,1.0,2.0,57,0.00,,,0.00,Wunderground v.1.15,2013-01-21 01:28:00,
2013-01-20 19:33:00,13.3,0.9,30.29,ESE,120,1.0,1.0,57,0.00,,,0.00,Wunderground v.1.15,2013-01-21 01:33:00,
2013-01-20 19:38:00,13.2,0.8,30.29,East,91,1.0,5.0,57,0.00,,,0.00,Wunderground v.1.15,2013-01-21 01:38:00,
2013-01-20 19:43:00,13.1,0.7,30.29,East,100,0.0,1.0,57,0.00,,,0.00,Wunderground v.1.15,2013-01-21 01:43:00,
2013-01-20 19:48:00,13.1,1.1,30.29,ESE,112,1.0,3.0,58,0.00,,,0.00,Wunderground v.1.15,2013-01-21 01:48:00,
2013-01-20 19:53:00,13.0,1.0,30.28,East,95,1.0,2.0,58,0.00,,,0.00,Wunderground v.1.15,2013-01-21 01:53:00,
2013-01-20 19:58:00,13.0,1.0,30.28,East,90,0.0,3.0,58,0.00,,,0.00,Wunderground v.1.15,2013-01-21 01:58:00,
2013-01-20 20:03:00,12.9,0.9,30.28,ESE,111,0.0,2.0,58,0.00,,,0.00,Wunderground v.1.15,2013-01-21 02:03:00,
2013-01-20 20:08:00,12.9,1.2,30.28,ESE,116,1.0,3.0,59,0.00,,,0.00,Wunderground v.1.15,2013-01-21 02:08:00,
2013-01-20 20:13:00,12.8,0.8,30.28,ESE,103,0.0,3.0,58,0.00,,,0.00,Wunderground v.1.15,2013-01-21 02:13:00,
2013-01-20 20:18:00,12.7,0.7,30.28,ESE,112,0.0,6.0,58,0.00,,,0.00,Wunderground v.1.15,2013-01-21 02:18:00,
2013-01-20 20:23:00,12.6,0.6,30.28,ESE,103,3.0,4.0,58,0.00,,,0.00,Wunderground v.1.15,2013-01-21 02:23:00,
2013-01-20 20:28:00,12.6,1.0,30.29,ESE,119,1.0,4.0,59,0.00,,,0.00,Wunderground v.1.15,2013-01-21 02:28:00,
2013-01-20 20:33:00,12.4,0.4,30.28,SE,132,1.0,3.0,58,0.00,,,0.00,Wunderground v.1.15,2013-01-21 02:33:00,
2013-01-20 20:39:00,12.3,0.7,30.28,SSE,150,0.0,5.0,59,0.00,,,0.00,Wunderground v.1.15,2013-01-21 02:39:00,
2013-01-20 20:44:00,12.2,0.9,30.28,ESE,105,2.0,3.0,60,0.00,,,0.00,Wunderground v.1.15,2013-01-21 02:44:00,
2013-01-20 20:49:00,12.1,0.9,30.28,East,101,0.0,3.0,60,0.00,,,0.00,Wunderground v.1.15,2013-01-21 02:49:00,
2013-01-20 20:54:00,12.1,1.2,30.28,ESE,118,1.0,3.0,61,0.00,,,0.00,Wunderground v.1.15,2013-01-21 02:54:00,
2013-01-20 20:59:00,12.1,1.2,30.28,SE,127,1.0,3.0,61,0.00,,,0.00,Wunderground v.1.15,2013-01-21 02:59:00,
2013-01-20 21:04:00,12.1,1.6,30.28,ESE,109,2.0,3.0,62,0.00,,,0.00,Wunderground v.1.15,2013-01-21 03:04:00,
2013-01-20 21:09:00,12.1,1.2,30.27,ESE,103,1.0,3.0,61,0.00,,,0.00,Wunderground v.1.15,2013-01-21 03:09:00,
2013-01-20 21:14:00,12.1,1.2,30.27,East,97,1.0,4.0,61,0.00,,,0.00,Wunderground v.1.15,2013-01-21 03:14:00,
2013-01-20 21:19:00,12.0,1.1,30.27,North,351,1.0,4.0,61,0.00,,,0.00,Wunderground v.1.15,2013-01-21 03:19:00,
2013-01-20 21:24:00,11.9,1.0,30.27,SSE,149,1.0,4.0,61,0.00,,,0.00,Wunderground v.1.15,2013-01-21 03:24:00,
2013-01-20 21:29:00,11.8,1.3,30.27,ESE,110,3.0,5.0,62,0.00,,,0.00,Wunderground v.1.15,2013-01-21 03:29:00,
2013-01-20 21:34:00,11.7,1.5,30.27,ESE,105,1.0,3.0,63,0.00,,,0.00,Wunderground v.1.15,2013-01-21 03:34:00,
2013-01-20 21:39:00,11.7,1.5,30.27,ESE,105,2.0,4.0,63,0.00,,,0.00,Wunderground v.1.15,2013-01-21 03:39:00,
2013-01-20 21:44:00,11.5,1.3,30.27,ESE,111,2.0,4.0,63,0.00,,,0.00,Wunderground v.1.15,2013-01-21 03:44:00,
2013-01-20 21:49:00,11.4,1.2,30.27,ESE,107,1.0,5.0,63,0.00,,,0.00,Wunderground v.1.15,2013-01-21 03:49:00,
2013-01-20 21:55:00,11.3,1.5,30.27,North,9,1.0,4.0,64,0.00,,,0.00,Wunderground v.1.15,2013-01-21 03:55:00,
2013-01-20 22:00:00,11.2,1.7,30.27,ESE,120,2.0,2.0,65,0.00,,,0.00,Wunderground v.1.15,2013-01-21 04:00:00,
2013-01-20 22:05:00,11.1,1.6,30.27,ESE,114,2.0,3.0,65,0.00,,,0.00,Wunderground v.1.15,2013-01-21 04:05:00,
2013-01-20 22:10:00,11.0,1.5,30.26,ESE,104,0.0,1.0,65,0.00,,,0.00,Wunderground v.1.15,2013-01-21 04:10:00,
2013-01-20 22:15:00,10.9,1.4,30.26,ESE,120,1.0,4.0,65,0.00,,,0.00,Wunderground v.1.15,2013-01-21 04:15:00,
2013-01-20 22:20:00,10.9,1.4,30.26,ESE,104,1.0,1.0,65,0.00,,,0.00,Wunderground v.1.15,2013-01-21 04:20:00,
2013-01-20 22:25:00,10.8,1.3,30.25,ESE,103,0.0,3.0,65,0.00,,,0.00,Wunderground v.1.15,2013-01-21 04:25:00,
2013-01-20 22:30:00,10.8,1.0,30.25,East,91,0.0,1.0,64,0.00,,,0.00,Wunderground v.1.15,2013-01-21 04:30:00,
2013-01-20 22:35:00,10.8,1.3,30.26,ESE,112,1.0,3.0,65,0.00,,,0.00,Wunderground v.1.15,2013-01-21 04:35:00,
2013-01-20 22:40:00,10.8,1.3,30.25,East,98,4.0,4.0,65,0.00,,,0.00,Wunderground v.1.15,2013-01-21 04:40:00,
2013-01-20 22:45:00,10.9,1.1,30.25,SE,126,2.0,5.0,64,0.00,,,0.00,Wunderground v.1.15,2013-01-21 04:45:00,
2013-01-20 22:50:00,10.9,1.1,30.25,ESE,116,1.0,2.0,64,0.00,,,0.00,Wunderground v.1.15,2013-01-21 04:50:00,
2013-01-20 22:55:00,11.0,1.5,30.25,ESE,110,2.0,4.0,65,0.00,,,0.00,Wunderground v.1.15,2013-01-21 04:55:00,
2013-01-20 23:00:00,11.1,1.3,30.25,ESE,113,0.0,2.0,64,0.00,,,0.00,Wunderground v.1.15,2013-01-21 05:00:00,
2013-01-20 23:03:00,11.2,1.7,30.25,SE,130,2.0,6.0,65,0.00,,,0.00,Wunderground v.1.15,2013-01-21 05:03:00,
2013-01-20 23:09:00,11.2,1.7,30.25,ESE,113,3.0,6.0,65,0.00,,,0.00,Wunderground v.1.15,2013-01-21 05:09:00,
2013-01-20 23:14:00,11.2,1.4,30.25,North,353,0.0,6.0,64,0.00,,,0.00,Wunderground v.1.15,2013-01-21 05:14:00,
2013-01-20 23:19:00,11.3,1.5,30.25,South,175,0.0,6.0,64,0.00,,,0.00,Wunderground v.1.15,2013-01-21 05:19:00,
2013-01-20 23:24:00,11.3,1.5,30.25,ESE,112,2.0,5.0,64,0.00,,,0.00,Wunderground v.1.15,2013-01-21 05:24:00,
2013-01-20 23:29:00,11.4,1.6,30.25,ESE,123,5.0,8.0,64,0.00,,,0.00,Wunderground v.1.15,2013-01-21 05:29:00,
2013-01-20 23:34:00,11.3,1.5,30.25,ESE,112,3.0,5.0,64,0.00,,,0.00,Wunderground v.1.15,2013-01-21 05:34:00,
2013-01-20 23:39:00,11.4,1.9,30.25,NNE,20,1.0,5.0,65,0.00,,,0.00,Wunderground v.1.15,2013-01-21 05:39:00,
2013-01-20 23:44:00,11.4,1.9,30.24,ESE,107,6.0,6.0,65,0.00,,,0.00,Wunderground v.1.15,2013-01-21 05:44:00,
2013-01-20 23:49:00,11.4,1.9,30.24,ESE,105,2.0,6.0,65,0.00,,,0.00,Wunderground v.1.15,2013-01-21 05:49:00,
2013-01-20 23:54:00,11.4,1.9,30.24,SE,128,4.0,5.0,65,0.00,,,0.00,Wunderground v.1.15,2013-01-21 05:54:00,
2013-01-20 23:59:00,11.4,1.6,30.24,ESE,102,3.0,5.0,64,0.00,,,0.00,Wunderground v.1.15,2013-01-21 05:59:00,